RH
29 29 27 27 28 31 34 35 37 36 36 39 38 34 30 28 23 21 17 18 20 19 18 18 19 19 16 14 14 16 18 21 18 19 15 18 19 23 25 28 29 31 30 29 30
35 34 32 32 32 33 34 34 36 38 39 37 37 36 32 33 30 24 21 19 20 20 21 23 24 24 21 17 16 17 17 17 17 16 18 19 21 25 26 31 33 29 28 30 31
38 36 35 35 32 32 34 36 38 39 42 42 38 38 42 38 34 28 22 21 22 26 27 26 27 28 25 22 20 19 17 18 19 19 20 22 25 27 30 35 30 30 29 31 31
41 43 40 35 35 35 36 36 40 41 41 39 39 38 40 38 35 30 26 26 29 31 29 29 28 27 28 25 22 20 21 22 22 21 24 24 26 31 33 32 31 31 33 32 35
54 51 46 43 40 39 39 38 37 38 38 38 40 39 40 40 38 36 32 29 30 30 32 33 32 31 31 28 23 22 22 24 22 22 24 26 31 35 36 32 32 33 33 34 37
59 57 55 50 43 40 41 42 40 39 40 41 41 43 44 44 43 42 38 32 34 43 46 43 44 36 28 26 23 23 23 24 23 23 26 29 33 36 36 34 33 33 32 34 39
58 57 58 54 49 47 47 45 45 45 48 48 46 46 47 46 49 49 41 41 46 50 54 53 51 39 29 25 22 22 23 23 22 25 31 32 36 38 37 35 31 31 35 36 44
64 62 60 62 57 54 54 52 51 50 51 51 51 48 49 55 58 53 48 52 55 59 62 61 58 43 33 22 23 27 24 20 21 28 32 34 36 36 37 33 33 32 36 38 47
67 67 66 71 67 64 57 57 56 53 53 53 53 53 58 61 63 68 71 70 71 67 68 67 62 42 32 26 24 26 21 24 23 28 32 35 35 39 35 36 33 33 36 38 51
69 70 70 72 73 70 67 62 60 57 56 54 53 55 61 67 76 85 93 90 85 86 75 67 55 42 35 29 28 21 26 27 27 25 27 31 36 38 37 38 33 35 35 41 59
73 74 77 70 75 74 72 66 58 63 62 60 59 56 63 70 77 78 84 86 84 79 69 59 48 36 30 32 29 28 29 31 28 27 30 31 39 41 40 40 36 33 35 42 65
77 80 85 80 82 80 80 77 67 71 68 72 71 66 69 74 76 80 89 76 66 69 56 49 35 31 34 31 29 29 29 31 28 29 30 34 40 44 44 40 35 32 34 45 69
80 77 77 82 86 86 86 81 77 73 76 71 68 69 71 73 82 74 62 63 72 58 48 42 36 35 33 32 32 32 31 31 30 32 35 44 45 45 39 38 34 25 33 52 82
75 66 69 84 96 92 87 90 82 76 77 69 64 62 55 54 60 58 62 58 54 52 42 40 40 43 38 32 32 34 30 32 36 41 46 44 53 46 38 33 19 18 37 56 83
58 61 82 98 99 91 93 83 82 82 84 56 57 57 57 58 70 59 44 54 53 46 43 41 39 37 38 31 31 33 32 42 43 44 47 46 53 42 37 27 24 23 39 58 84
73 83 97 98 98 91 97 85 87 87 87 63 58 64 64 69 76 68 61 44 49 48 45 42 46 47 40 33 34 37 40 45 44 48 54 46 48 43 40 36 26 24 41 57 85
73 94 99 99 97 98 94 89 93 92 76 69 66 68 75 87 81 90 77 59 65 65 63 52 52 47 37 36 39 38 41 44 34 36 35 38 50 38 33 30 29 27 41 58 86
74 94 90 96 95 98 90 87 96 90 87 76 75 82 77 71 70 67 77 86 65 60 67 64 62 56 44 42 45 41 36 37 14 31 34 34 50 31 29 25 23 23 41 58 86
49 66 83 95 97 95 92 86 87 87 80 83 89 94 92 77 82 80 74 70 69 74 65 67 50 46 45 45 37 33 44 38 44 50 44 33 30 25 24 23 20 21 40 57 83
43 51 55 65 72 78 87 90 89 84 91 88 97 96 83 74 82 89 78 78 70 60 67 58 64 50 49 43 39 35 35 31 41 20 17 25 33 33 25 26 23 21 43 56 81
47 52 49 50 62 66 69 76 83 86 95 97 98 98 91 81 80 91 91 77 80 57 67 63 54 56 52 46 46 38 34 41 39 41 31 37 22 26 29 29 27 22 40 56 79
58 57 49 53 60 67 73 85 95 95 95 95 97 98 98 91 94 82 80 81 65 70 63 65 60 68 52 50 49 41 34 30 29 18 47 47 30 25 26 28 24 24 36 53 78
61 61 61 66 67 68 79 87 97 98 97 92 95 98 94 97 98 83 78 80 84 63 69 64 63 61 58 55 47 46 37 33 33 34 43 38 18 20 23 24 20 24 33 48 73
62 69 72 72 82 89 84 79 87 92 94 85 86 98 95 97 86 89 83 77 82 86 79 58 63 57 51 49 48 48 43 36 32 34 36 39 25 16 16 23 19 23 31 45 64
65 70 73 81 89 90 96 83 74 80 78 81 91 98 98 96 96 93 89 80 81 84 72 65 62 59 49 52 47 43 39 40 35 25 26 20 31 20 19 23 20 24 28 42 55
61 68 75 78 89 93 98 97 95 82 89 93 97 98 98 96 96 91 91 78 72 65 63 63 71 63 60 60 48 45 34 37 37 31 30 33 28 18 19 20 19 21 24 38 49
63 69 71 77 80 91 93 95 97 87 90 98 98 96 96 96 92 89 79 81 72 69 66 67 72 62 61 67 54 42 39 37 34 31 27 27 16 17 19 20 17 19 21 34 45